{"data":{"norad_id":57129,"epoch":"2026-05-24T13:49:59.133504Z","epoch_age_seconds":108052,"freshness":"FRESH","line1":"1 57129U 23090AE  26144.57637886 -.00000245  00000+0  61856-6 0  9998","line2":"2 57129  43.0006 195.2595 0001263 269.3821  90.6886 15.27574969161952","mean_motion":15.27574969,"eccentricity":0.0001263,"inclination_deg":43.0006,"raan_deg":195.2595,"arg_perigee_deg":269.3821,"mean_anomaly_deg":90.6886,"bstar":6.1856e-7,"rev_number":16195,"period_min":94.267059176982,"perigee_km":482.19759099829,"apogee_km":483.93073041149,"semimajor_km":6861.2011607049,"source":"CELESTRAK","updated_at":"2026-05-25T13:38:18.245208Z"}}